Location: Campillo
(40.8621°N, 4.2488°W)
Time: 11:43:26
(UTC+00:00)

SL-08 ROCKET BODY - Pass Details

Date: 11 May 2021
Orbit: 896 x 964 km, 82.9° (Epoch: 13 June)

Event Time Altitude Azimuth Distance (km) Brightness Sun altitude
Rises 19:53:13 0° 355° (N) 3,546 8.0 -5.7°
Reaches altitude 10° 19:55:43 10° 357° (N) 2,593 7.2 -6.2°
Maximum altitude 20:01:35 70° 82° (E) 956 4.4 -7.1°
Drops below altitude 10° 20:07:23 10° 165° (SSE) 2,559 6.3 -8.0°
Sets 20:09:49 0° 168° (SSE) 3,496 7.0 -8.4°
